ニート-リニア彗星

410P/NEAT-LINEAR (2021)

English version
Home page
Updated on April 4, 2021

---------------------------------------------------------------------

・ プロフィール

符号 410P/2020 W2
検出日 2020年11月16日
検出光度 20.1等
検出者 D. Rankin (Mount Lemmon)

・ 写真集

・ 軌道要素

Epoch 2021 July 5.0 TT = JDT 2459400.5
T 2021 June 23.56893 TT                                 Rudenko
q   3.2469868            (2000.0)            P               Q
n   0.05771185     Peri.  313.09672     -0.05997921     -0.99266629
a   6.6317180      Node   139.98053     +0.95668709     -0.08717370
e   0.5103853      Incl.    9.39380     +0.28487245     +0.08375193
P  17.1
From 73 observations 2005 Jan. 17-2021 Jan. 15, mean residual 0".3.

・ 光度変化

        m1 = 12.0 + 5 logΔ + 10.0 log r

---------------------------------------------------------------------

軌道要素はM.P.E.C. 2021-B143に掲載されたものです。
光度グラフはComet for Windowsで作成したものです。

---------------------------------------------------------------------

Copyright(C) Seiichi Yoshida (comet@aerith.net). All rights reserved.